Tracking 18957 objects as of 23-Jan-2018
HD Live streaming from Space Station
objects crossing your sky now

FENGYUN 1C DEB

Track FENGYUN 1C DEB now!
10-day predictions


NORAD ID: 31224
Int'l Code: 1999-025BLE
Perigee: 699.3 km
Apogee: 940.8 km
Inclination: 98.6 °
Period: 101.1 minutes
Semi major axis: 7191 km
RCS: 0.0105 m2 (small)
Launch date: May 10, 1999
Source: People's Republic of China (PRC)
Launch site: Taiyaun Space Center, China (TSC)

Note: This is SATELLITE DEBRIS
aabbcc
Your satellite tracking list
Your tracking list is empty




NASA's NSSDC Master Catalog

Two Line Element Set (TLE):
1 31224U 99025BLE 18021.41125209  .00000130  00000-0  66955-4 0  9992
2 31224  98.6110  83.3687 0167865 324.6341  99.0357 14.23690529562085
Source of the keplerian elements: AFSPC